STARLINK-32743, 62480

Orbit data source: Space-Track

STARLINK-32743, 62480 is a payload satellite owned by SpaceX/Seattle (US) in LEO that was launched on Tue, 31 Dec 2024 UTC via an FALCON 9 launch vehicle from the Air Force Eastern Test Range (AFETR). Payload-class satellites include a variety of spacecraft equipped with specific instruments for various scientific and technological missions. These include communications satellites like Starlink; space stations such as the ISS; scientific satellites like the Hubble; Earth observation satellites from companies like Planet Labs, Umbra, and HawkEye 360; GPS; miniature CubeSats for education and research; and military/defense satellites.

Loading next visibility...
Identifier
62480, 2024-254U
Orbit
LEO
Country
Flag of USUS
Related business
Manufacturer
SpaceX/Seattle
Mission
Operational Commercial Communications
Bus & Motor
STARLINK V2M, Unknown motor
Mass
730 kg wet, ~700 kg dry
Launch date (UTC)
2024-12-31 (1 year ago)
Launch vehicle
FALCON 9
Launch site
Air Force Eastern Test Range (AFETR)
Object type
Payload
Rocket body
Debris
Shape & HBR
Box + 2 Pan, 17.7 m
Radar Cross Section
33.884 m², Large (>1 m²)

Expand to show TLE details & history
Last TLE update: 1 day ago

TLE from 1 day ago
0 STARLINK-32743
1 62480U 24254U   26120.37820277  .00016138  00000-0  59447-3 0  9995
2 62480  42.9999  83.9784 0001731 274.8028  85.2626 15.27590683 75564
Epoch: 2026-04-30T09:04Z
TLE epoch observation values (Epoch: 2026-04-30T09:04:36.719Z)
Latitude
-0.00001°
Longitude
89.49972°
Altitude
482.695 km
Speed
7.626 km/s
True Right ascension
05h 35m 54s
True Declination
0° 00' 00"
Sunlit
Object was in daylight at epoch
Visualization orbit readout
Latitude
Unknown
Longitude
Unknown
Altitude
Unknown
Speed
Unknown
Apparent Right ascension
Unknown
Apparent Declination
Unknown
Sunlit
N/A
Visualization observer readout
Local Sidereal Time
19:00:21
Azimuth
Unknown
Elevation
Unknown
Doppler factor
Unknown
Orbital elements
Apogee altitude
486.15 km
Perigee altitude
483.774 km
Semi-major axis
6,863.099 km
Eccentricity
0.00017
Inclination
42.9999°
RAAN
83.9784°
Arg. of periapsis
274.8028°
True anomaly
85.28237°
Mean anomaly
85.2626°
Eccentric anomaly
85.27248°
Mean motion
3.81736 °/min
Orbital period
94.31 mins
BSTAR
0.00059447
Loading maneuver chart data...
Computing Atmospheric mass density...
Loading historical data...
Loading historical data...
Loading historical data...
Loading historical data...
Loading historical data...
Loading historical data...
Loading historical data...

Documentation

Showing up to 5 results
|